Stations météo

réclame
Mon MeteoGroup
UFS TW Ems, Allemagne (10004): Température de l'air & dewpoint: 14.06.2018 23:00:00 - 20.06.2018 23:00:00 (CEST)UFS TW Ems, Allemagne (10004): Vitesse du vent & gusts: 14.06.2018 23:00:00 - 20.06.2018 23:00:00 (CEST)UFS TW Ems, Allemagne (10004): Direction du vent: 14.06.2018 23:00:00 - 20.06.2018 23:00:00 (CEST)UFS TW Ems, Allemagne (10004): reduced air pressure: 14.06.2018 23:00:00 - 20.06.2018 23:00:00 (CEST)UFS TW Ems, Allemagne (10004): visibility: 14.06.2018 23:00:00 - 20.06.2018 23:00:00 (CEST)UFS TW Ems, Allemagne (10004): Ensoleillement: 14.06.2018 23:00:00 - 20.06.2018 23:00:00 (CEST)
Date & Time tt [°C] td [°C] ff [km/h] ff [knt] fx [km/h] fx [knt] dd ppp [hPa] vv [km] sd [min]
20.06.2018 23:00:00 - - - - - - - - - -
20.06.2018 22:00:00 15,5 14,9 32 18 - - WSW 1014,9 10 0
20.06.2018 21:00:00 15,5 15,0 32 18 - - SW 1014,9 10 6
20.06.2018 20:00:00 15,1 14,9 36 19 - - SW 1015,1 10 0
20.06.2018 19:00:00 15,0 14,8 40 21 54 29 SW 1015,4 10 0
20.06.2018 18:00:00 14,9 14,6 43 23 61 33 SW 1015,9 10 0
20.06.2018 17:00:00 14,8 14,8 47 25 - - SW 1016,5 9 0
20.06.2018 16:00:00 15,2 15,1 43 23 50 27 SW 1016,8 10 0
20.06.2018 15:00:00 15,8 15,6 40 21 47 25 SW 1017,2 10 12
20.06.2018 14:00:00 15,6 15,6 32 18 - - SSW 1017,5 10 54
20.06.2018 13:00:00 15,7 15,7 32 18 47 25 SSW 1017,8 10 60
20.06.2018 12:00:00 15,6 15,5 36 19 50 27 SSW 1017,8 10 30
20.06.2018 11:00:00 15,5 14,2 40 21 - - SW 1018,0 10 0
20.06.2018 10:00:00 15,2 15,1 36 19 50 27 SW 1018,1 8 0
20.06.2018 09:00:00 15,7 15,6 43 23 50 27 SSW 1018,1 10 42
20.06.2018 08:00:00 15,9 15,8 36 19 - - SSW 1018,0 10 60
20.06.2018 07:00:00 16,0 15,5 32 18 - - SSW 1018,4 10 60
20.06.2018 06:00:00 16,1 15,4 36 19 - - SSW 1018,6 10 0
20.06.2018 05:00:00 15,9 15,8 29 16 - - SSW 1019,0 10 0
20.06.2018 04:00:00 15,9 15,3 32 18 - - S 1019,5 10 0
20.06.2018 03:00:00 15,9 15,2 25 14 - - S 1020,0 10 0
20.06.2018 02:00:00 15,6 14,4 22 12 - - S 1020,8 10 0
20.06.2018 01:00:00 14,8 13,6 14 8 - - S 1021,6 10 0
20.06.2018 00:00:00 14,8 13,0 14 8 - - S 1021,8 10 0
19.06.2018 23:00:00 15,2 12,3 11 6 - - SSW 1022,5 10 0
19.06.2018 22:00:00 15,1 12,1 14 8 - - SW 1022,3 10 0
19.06.2018 21:00:00 15,1 11,5 18 10 - - WSW 1022,5 10 60
19.06.2018 20:00:00 15,1 12,1 18 10 - - WSW 1022,6 10 60
19.06.2018 19:00:00 15,1 11,5 18 10 - - WSW 1022,6 10 60
19.06.2018 18:00:00 15,0 9,9 22 12 - - WSW 1022,6 10 60
19.06.2018 17:00:00 15,0 10,7 22 12 - - W 1022,5 10 60
19.06.2018 16:00:00 14,9 10,7 25 14 - - WSW 1022,2 10 60
19.06.2018 15:00:00 - - - - - - - - - -
19.06.2018 14:00:00 15,1 11,1 22 12 - - WSW 1021,8 10 60
19.06.2018 13:00:00 15,0 10,4 22 12 - - W 1021,4 10 60
19.06.2018 12:00:00 15,1 12,5 18 10 - - WNW 1020,9 10 60
19.06.2018 11:00:00 15,6 12,1 18 10 - - WNW 1020,5 10 60
19.06.2018 10:00:00 16,0 13,7 18 10 - - WNW 1019,7 10 42
19.06.2018 09:00:00 15,6 14,8 22 12 - - W 1018,7 10 0
19.06.2018 08:00:00 15,3 14,5 25 14 - - W 1017,8 10 0
19.06.2018 07:00:00 15,7 14,9 29 16 - - WSW 1017,3 10 0
19.06.2018 06:00:00 15,5 14,6 22 12 - - SW 1016,7 10 0
19.06.2018 05:00:00 15,7 14,4 22 12 - - WSW 1016,4 10 0
19.06.2018 04:00:00 15,4 14,3 29 16 - - SW 1015,8 10 0
19.06.2018 03:00:00 - - - - - - - - - -
19.06.2018 02:00:00 - - - - - - - - - -
19.06.2018 01:00:00 - - - - - - - - - -
19.06.2018 00:00:00 - - - - - - - - - -
18.06.2018 23:00:00 15,2 14,3 25 14 - - SW 1017,1 10 0
18.06.2018 22:00:00 15,1 14,4 29 16 - - SW 1016,7 10 36
18.06.2018 21:00:00 15,1 14,3 32 18 - - SW 1016,5 10 60
18.06.2018 20:00:00 15,3 14,5 25 14 - - SW 1016,6 10 18
18.06.2018 19:00:00 15,2 14,5 25 14 - - WSW 1016,7 10 0
18.06.2018 18:00:00 15,3 14,5 22 12 - - SW 1016,5 10 18
18.06.2018 17:00:00 14,9 14,7 18 10 - - SW 1016,6 9 0
18.06.2018 16:00:00 15,2 14,6 22 12 - - SW 1017,0 10 0
18.06.2018 15:00:00 15,3 14,5 22 12 - - SW 1016,8 10 0
18.06.2018 14:00:00 15,3 14,5 25 14 - - SW 1016,4 10 0
18.06.2018 13:00:00 15,2 14,5 29 16 - - SW 1016,1 10 0
18.06.2018 12:00:00 15,2 14,7 25 14 - - SW 1016,1 10 0
18.06.2018 11:00:00 14,8 14,7 29 16 - - SSW 1015,6 9 0
18.06.2018 10:00:00 14,6 14,6 29 16 - - SSW 1015,4 9 0
18.06.2018 09:00:00 14,5 14,3 36 19 47 25 S 1015,3 9 0
18.06.2018 08:00:00 14,5 14,1 36 19 - - S 1015,3 10 0
18.06.2018 07:00:00 14,8 14,1 32 18 - - S 1015,4 10 0
18.06.2018 06:00:00 15,0 14,1 29 16 - - SSW 1015,6 10 0
18.06.2018 05:00:00 14,9 14,0 32 18 - - S 1015,4 10 0
18.06.2018 04:00:00 15,0 13,7 32 18 - - S 1015,7 10 0
18.06.2018 03:00:00 15,0 13,8 22 12 - - S 1016,1 10 0
18.06.2018 02:00:00 14,8 13,5 22 12 - - SSW 1016,4 10 0
18.06.2018 01:00:00 14,7 13,1 25 14 - - SSW 1016,7 10 0
18.06.2018 00:00:00 14,6 12,7 29 16 - - SW 1016,7 10 0
17.06.2018 23:00:00 14,6 13,0 25 14 - - SSW 1016,8 10 0
17.06.2018 22:00:00 14,7 12,5 25 14 - - SW 1016,4 10 0
17.06.2018 21:00:00 14,6 12,3 25 14 - - WSW 1016,5 10 18
17.06.2018 20:00:00 14,5 12,2 29 16 - - WSW 1016,2 10 6
17.06.2018 19:00:00 14,8 12,9 25 14 - - SW 1016,1 10 42
17.06.2018 18:00:00 14,7 12,7 29 16 - - SW 1015,9 10 60
17.06.2018 17:00:00 14,6 12,3 25 14 - - SW 1015,5 10 60
17.06.2018 16:00:00 - 12,4 - - - - - 1015,2 10 60
17.06.2018 15:00:00 14,9 12,4 25 14 - - SW 1015,0 10 60
17.06.2018 14:00:00 14,8 11,9 25 14 - - SW 1014,6 10 54
17.06.2018 13:00:00 14,8 12,0 25 14 - - SW 1014,1 10 30
17.06.2018 12:00:00 14,9 12,4 25 14 - - SW 1013,6 10 30
17.06.2018 11:00:00 14,9 12,2 22 12 - - SW 1013,3 10 54
17.06.2018 10:00:00 14,7 11,9 25 14 - - WSW 1012,9 10 30
17.06.2018 09:00:00 14,5 12,0 25 14 - - WSW 1012,3 10 48
17.06.2018 08:00:00 14,7 12,0 32 18 - - WSW 1011,5 10 42
17.06.2018 07:00:00 14,7 13,3 32 18 - - WSW 1011,2 10 0
17.06.2018 06:00:00 15,0 13,7 36 19 - - SW 1011,0 10 0
17.06.2018 05:00:00 15,2 13,9 36 19 - - SSW 1011,1 10 0
17.06.2018 04:00:00 14,9 13,7 32 18 - - S 1011,3 10 0
17.06.2018 03:00:00 14,9 13,3 29 16 - - S 1011,9 10 0
17.06.2018 02:00:00 15,0 13,1 25 14 - - S 1012,1 10 0
17.06.2018 01:00:00 15,1 13,4 22 12 - - SSW 1012,5 10 0
17.06.2018 00:00:00 15,3 13,0 22 12 - - SW 1012,7 10 0
16.06.2018 23:00:00 14,8 13,9 22 12 - - SSW 1012,9 10 0
16.06.2018 22:00:00 15,0 13,8 18 10 - - SSW 1012,9 10 36
16.06.2018 21:00:00 15,2 13,9 14 8 - - SW 1012,7 10 18
16.06.2018 20:00:00 15,2 13,9 18 10 - - WSW 1012,9 10 24
16.06.2018 19:00:00 15,4 14,0 22 12 - - WSW 1013,0 10 6
16.06.2018 18:00:00 15,3 13,8 18 10 - - WSW 1012,9 10 6
16.06.2018 17:00:00 15,2 13,5 22 12 - - WSW 1013,0 10 18
16.06.2018 16:00:00 15,7 12,5 22 12 - - SW 1013,0 10 18
16.06.2018 15:00:00 15,5 14,4 22 12 - - SW 1013,2 9 6
16.06.2018 14:00:00 15,9 14,1 14 8 - - S 1013,3 10 0
16.06.2018 13:00:00 16,0 14,7 11 6 - - S 1013,6 10 0
16.06.2018 12:00:00 15,9 14,4 11 6 - - S 1013,8 10 0
16.06.2018 11:00:00 - - - - - - - - - -
16.06.2018 10:00:00 - - - - - - - - - -
16.06.2018 09:00:00 - - - - - - - - - -
16.06.2018 08:00:00 15,5 13,9 14 8 - - ENE 1014,2 10 0
16.06.2018 07:00:00 - - - - - - - - - -
16.06.2018 06:00:00 16,0 13,4 18 10 - - ENE 1014,7 10 0
16.06.2018 05:00:00 15,8 13,2 22 12 - - E 1015,0 10 0
16.06.2018 04:00:00 15,5 13,3 14 8 - - NE 1015,6 10 0
16.06.2018 03:00:00 15,6 13,7 11 6 - - E 1015,7 10 0
16.06.2018 02:00:00 15,7 13,5 14 8 - - E 1016,0 10 0
16.06.2018 01:00:00 15,9 13,1 11 6 - - ESE 1016,2 10 0
16.06.2018 00:00:00 15,7 12,5 4 2 - - ESE 1016,5 10 0
15.06.2018 23:00:00 15,9 12,5 4 2 - - S 1016,6 9 0
15.06.2018 22:00:00 - - - - - - - - - -
15.06.2018 21:00:00 16,3 12,6 7 4 - - SE 1016,9 10 18
15.06.2018 20:00:00 - - - - - - - - - -
15.06.2018 19:00:00 - - - - - - - - - -
15.06.2018 18:00:00 - - - - - - - - - -
15.06.2018 17:00:00 - - - - - - - - - -
15.06.2018 16:00:00 - - - - - - - - - -
15.06.2018 15:00:00 - - - - - - - - - -
15.06.2018 14:00:00 - - - - - - - - - -
15.06.2018 13:00:00 - - - - - - - - - -
15.06.2018 12:00:00 15,0 12,8 18 10 - - S 1017,0 10 60
15.06.2018 11:00:00 - - - - - - - - - -
15.06.2018 10:00:00 - - - - - - - - - -
15.06.2018 09:00:00 14,9 12,6 14 8 - - SW 1016,3 10 60
15.06.2018 08:00:00 - - - - - - - - - -
15.06.2018 07:00:00 14,7 12,3 18 10 - - SW 1015,5 10 54
15.06.2018 06:00:00 - - - - - - - - - -
15.06.2018 05:00:00 - - - - - - - - - -
15.06.2018 04:00:00 - - - - - - - - - -
15.06.2018 03:00:00 - - - - - - - - - -
15.06.2018 02:00:00 - - - - - - - - - -
15.06.2018 01:00:00 - - - - - - - - - -
15.06.2018 00:00:00 - - - - - - - - - -
14.06.2018 23:00:00 - - - - - - - - - -

tt = Température de l'air
td = dewpoint
ff = Vitesse du vent
fx = gusts
dd = Direction du vent
ppp = reduced air pressure
vv = visibility
sd = Ensoleillement

stations d'obs. à proximité